DW8024 Weather Reports


Display with metric or nautical units.
time (UTC)temp
F
wind
direction
speed
MPH
gust
MPH
rain 1hr
in
rain 24hr
in
rain mn
in
humidity
%
barometer
mb
20170926015454 49 0 0.0 1.0 0.00 0.00 0.00 94 1021.5
20170926014954 49 0 0.0 1.0 0.00 0.00 0.00 94 1021.4
20170926014457 49 0 0.0 0.0 0.00 0.00 0.00 94 1021.6
20170926013954 49 0 0.0 0.0 0.00 0.00 0.00 94 1021.6
20170926013454 49 0 0.0 1.0 0.00 0.00 0.00 94 1021.6
20170926012957 49 0 0.0 1.0 0.00 0.00 0.00 94 1021.6
20170926012454 49 81 1.0 1.0 0.00 0.00 0.00 94 1021.6
20170926011953 50 80 1.0 2.0 0.00 0.00 0.00 94 1021.6
20170926011457 50 80 1.0 2.0 0.00 0.00 0.00 94 1021.6
20170926010953 50 80 1.0 2.0 0.00 0.00 0.00 94 1021.6
20170926010454 50 0 0.0 2.0 0.00 0.00 0.00 94 1021.6
20170926005958 50 0 0.0 0.0 0.00 0.00 0.00 94 1021.7
20170926005453 50 0 0.0 0.0 0.00 0.00 0.00 94 1021.8
20170926004953 51 0 0.0 0.0 0.00 0.00 0.00 94 1021.7
20170926004457 51 0 0.0 0.0 0.00 0.00 0.00 94 1021.8
20170926003953 51 0 0.0 1.0 0.00 0.00 0.00 94 1021.9
20170926003453 51 0 0.0 2.0 0.00 0.00 0.00 94 1021.9
20170926002957 51 80 1.0 2.0 0.00 0.00 0.00 94 1021.9
20170926002453 51 80 1.0 2.0 0.00 0.00 0.00 93 1021.8
20170926001954 51 80 1.0 2.0 0.00 0.00 0.00 93 1021.8
20170926001456 51 0 0.0 2.0 0.00 0.00 0.00 93 1021.8
20170926000954 51 0 0.0 0.0 0.00 0.00 0.00 93 1021.8
20170926000453 51 0 0.0 0.0 0.00 0.00 0.00 93 1021.8
20170925235957 51 0 0.0 1.0 0.00 0.00 0.00 93 1021.8
20170925235454 51 80 1.0 2.0 0.00 0.00 0.00 93 1021.8
20170925234954 51 80 1.0 2.0 0.00 0.00 0.00 93 1021.7
20170925234456 51 80 1.0 2.0 0.00 0.00 0.00 93 1021.7
20170925233954 51 0 0.0 2.0 0.00 0.00 0.00 93 1021.8
20170925233453 51 0 0.0 1.0 0.00 0.00 0.00 93 1021.7
20170925232957 51 0 0.0 1.0 0.00 0.00 0.00 93 1021.7
20170925232453 52 0 0.0 1.0 0.00 0.00 0.00 93 1021.7
20170925231953 52 81 1.0 2.0 0.00 0.00 0.00 93 1021.8
20170925231457 52 0 0.0 2.0 0.00 0.00 0.00 93 1021.8
20170925230953 52 0 0.0 1.0 0.00 0.00 0.00 93 1021.8
20170925230454 52 80 1.0 2.0 0.00 0.00 0.00 93 1021.8
20170925230004 52 80 1.0 2.0 0.00 0.00 0.00 92 1021.8
20170925225453 52 0 0.0 1.0 0.00 0.00 0.00 93 1021.8
20170925224953 53 0 0.0 1.0 0.00 0.00 0.00 93 1021.7
20170925224457 53 0 0.0 1.0 0.00 0.00 0.00 92 1021.8
20170925223953 53 80 1.0 2.0 0.00 0.00 0.00 92 1021.7
20170925223453 53 0 0.0 2.0 0.00 0.00 0.00 92 1021.7
20170925222956 53 0 0.0 2.0 0.00 0.00 0.00 92 1021.7
20170925222454 53 0 0.0 2.0 0.00 0.00 0.00 92 1021.7
20170925221953 53 0 0.0 1.0 0.00 0.00 0.00 92 1021.6
20170925221457 53 0 0.0 0.0 0.00 0.00 0.00 92 1021.6
20170925220954 54 0 0.0 2.0 0.00 0.00 0.00 92 1021.6
20170925220453 54 0 0.0 2.0 0.00 0.00 0.00 92 1021.6
20170925215957 54 0 0.0 1.0 0.00 0.00 0.00 92 1021.6
20170925215453 54 0 0.0 2.0 0.00 0.00 0.00 92 1021.6
20170925214954 54 80 1.0 2.0 0.00 0.00 0.00 92 1021.6
20170925214456 55 80 1.0 2.0 0.00 0.00 0.00 92 1021.6
20170925213954 55 80 1.0 2.0 0.00 0.00 0.00 91 1021.6
20170925213453 55 0 0.0 2.0 0.00 0.00 0.00 91 1021.7
20170925212957 56 0 0.0 0.0 0.00 0.00 0.00 91 1021.7
20170925212453 56 0 0.0 2.0 0.00 0.00 0.00 91 1021.7
20170925211953 56 0 0.0 2.0 0.00 0.00 0.00 91 1021.7
20170925211457 56 80 1.0 2.0 0.00 0.00 0.00 91 1021.7
20170925210953 57 80 2.0 3.0 0.00 0.00 0.00 91 1021.6
20170925210453 57 80 1.0 3.0 0.00 0.00 0.00 91 1021.4
20170925205956 57 80 1.0 2.0 0.00 0.00 0.00 91 1021.5
20170925205453 57 80 2.0 3.0 0.00 0.00 0.00 91 1021.5
20170925204953 57 80 1.0 3.0 0.00 0.00 0.00 91 1021.5
20170925204456 57 0 0.0 2.0 0.00 0.00 0.00 90 1021.5
20170925203953 58 80 1.0 2.0 0.00 0.00 0.00 90 1021.6
20170925203453 58 80 1.0 2.0 0.00 0.00 0.00 90 1021.6
20170925202956 58 0 0.0 2.0 0.00 0.00 0.00 90 1021.6
20170925202453 58 79 1.0 3.0 0.00 0.00 0.00 90 1021.6
20170925201953 59 79 1.0 3.0 0.00 0.00 0.00 90 1021.6
20170925201457 59 79 1.0 3.0 0.00 0.00 0.00 90 1021.6
20170925200953 59 80 1.0 2.0 0.00 0.00 0.00 90 1021.6
20170925200453 59 80 1.0 2.0 0.00 0.00 0.00 90 1021.8
20170925195956 60 80 1.0 1.0 0.00 0.00 0.00 90 1021.8
20170925195453 60 0 0.0 1.0 0.00 0.00 0.00 90 1022.0
20170925194953 60 0 0.0 1.0 0.00 0.00 0.00 90 1022.0
20170925194456 60 0 0.0 1.0 0.00 0.00 0.00 89 1022.1
20170925193953 60 0 0.0 1.0 0.00 0.00 0.00 89 1022.0
20170925193453 60 0 0.0 2.0 0.00 0.00 0.00 89 1022.0
20170925192956 60 0 0.0 2.0 0.00 0.00 0.00 90 1021.9
20170925192453 60 0 0.0 2.0 0.00 0.00 0.00 90 1021.9
20170925191953 60 0 0.0 0.0 0.00 0.00 0.00 90 1021.9
20170925191456 61 80 1.0 2.0 0.00 0.00 0.00 90 1021.8
20170925190953 61 80 1.0 2.0 0.00 0.00 0.00 90 1021.7
20170925190453 61 0 0.0 2.0 0.00 0.00 0.00 90 1021.7
20170925185956 61 0 0.0 2.0 0.00 0.00 0.00 90 1021.7
20170925185453 61 0 0.0 2.0 0.00 0.00 0.00 90 1021.6
20170925184953 61 0 0.0 0.0 0.00 0.00 0.00 90 1021.6
20170925184455 61 0 0.0 0.0 0.00 0.00 0.00 89 1021.6
20170925183953 61 0 0.0 2.0 0.00 0.00 0.00 89 1021.6
20170925183453 61 0 0.0 2.0 0.00 0.00 0.00 89 1021.5
20170925182956 62 0 0.0 0.0 0.00 0.00 0.00 89 1021.4
20170925182453 62 0 0.0 0.0 0.00 0.00 0.00 89 1021.5
20170925181952 62 0 0.0 0.0 0.00 0.00 0.00 89 1021.4
20170925181456 62 0 0.0 0.0 0.00 0.00 0.00 88 1021.4
20170925180953 62 0 0.0 0.0 0.00 0.00 0.00 88 1021.4
20170925180453 62 0 0.0 1.0 0.00 0.00 0.00 88 1021.3
20170925175956 62 0 0.0 1.0 0.00 0.00 0.00 88 1021.4
20170925175453 62 0 0.0 1.0 0.00 0.00 0.00 88 1021.3
20170925174953 62 0 0.0 0.0 0.00 0.00 0.00 88 1021.2
20170925174456 62 0 0.0 0.0 0.00 0.00 0.00 88 1021.2
20170925173954 62 0 0.0 0.0 0.00 0.00 0.00 87 1021.2
20170925173453 62 0 0.0 1.0 0.00 0.00 0.00 87 1021.2
20170925172956 62 0 0.0 1.0 0.00 0.00 0.00 87 1021.1
20170925172453 63 0 0.0 1.0 0.00 0.00 0.00 87 1021.1
20170925171953 63 0 0.0 1.0 0.00 0.00 0.00 86 1021.0
20170925171456 63 0 0.0 1.0 0.00 0.00 0.00 86 1021.0
20170925170953 63 0 0.0 1.0 0.00 0.00 0.00 86 1020.9
20170925170453 63 0 0.0 1.0 0.00 0.00 0.00 85 1020.8
20170925165956 63 332 1.0 2.0 0.00 0.00 0.00 85 1020.8
20170925165453 63 332 1.0 2.0 0.00 0.00 0.00 85 1020.8
20170925164953 64 0 0.0 2.0 0.00 0.00 0.00 84 1020.7
20170925164456 64 0 0.0 1.0 0.00 0.00 0.00 84 1020.6
20170925163953 64 332 1.0 2.0 0.00 0.00 0.00 84 1020.6
20170925163453 64 331 1.0 3.0 0.00 0.00 0.00 83 1020.6
20170925162955 64 332 1.0 3.0 0.00 0.00 0.00 83 1020.6
20170925162453 65 331 1.0 2.0 0.00 0.00 0.00 83 1020.5
20170925161952 65 332 1.0 2.0 0.00 0.00 0.00 83 1020.5
20170925161455 65 332 1.0 2.0 0.00 0.00 0.00 82 1020.5
20170925160953 65 331 1.0 2.0 0.00 0.00 0.00 82 1020.5
20170925160452 65 331 1.0 2.0 0.00 0.00 0.00 82 1020.5
20170925155956 65 331 1.0 2.0 0.00 0.00 0.00 83 1020.5
20170925155452 65 0 0.0 2.0 0.00 0.00 0.00 82 1020.4
20170925154953 65 0 0.0 2.0 0.00 0.00 0.00 83 1020.5
20170925154455 65 332 1.0 2.0 0.00 0.00 0.00 83 1020.4
20170925153953 65 331 1.0 2.0 0.00 0.00 0.00 83 1020.4
20170925153452 65 331 1.0 3.0 0.00 0.00 0.00 83 1020.4
20170925152956 65 345 1.0 3.0 0.00 0.00 0.00 83 1020.4
20170925152452 65 4 1.0 3.0 0.00 0.00 0.00 83 1020.4
20170925151952 65 27 1.0 2.0 0.00 0.00 0.00 84 1020.4
20170925151456 65 5 1.0 2.0 0.00 0.00 0.00 85 1020.4
20170925150952 64 326 1.0 2.0 0.00 0.00 0.00 83 1020.4
20170925150453 64 314 1.0 3.0 0.00 0.00 0.00 84 1020.4
20170925145958 64 312 2.0 3.0 0.00 0.00 0.00 85 1020.4
20170925145453 64 311 2.0 3.0 0.00 0.00 0.00 86 1020.4
20170925144952 64 312 1.0 3.0 0.00 0.00 0.00 87 1020.4
20170925144456 64 306 2.0 4.0 0.00 0.00 0.00 87 1020.4
20170925143953 64 299 2.0 4.0 0.00 0.00 0.00 86 1020.4
20170925143452 64 295 2.0 4.0 0.00 0.00 0.00 87 1020.5
20170925142956 63 281 2.0 3.0 0.00 0.00 0.00 88 1020.4
20170925142452 63 278 2.0 3.0 0.00 0.00 0.00 88 1020.4
20170925141952 62 272 2.0 4.0 0.00 0.00 0.00 89 1020.4
20170925141456 62 261 2.0 5.0 0.00 0.00 0.00 89 1020.4
20170925140952 62 254 2.0 5.0 0.00 0.00 0.00 89 1020.4
20170925140452 62 232 3.0 5.0 0.00 0.00 0.00 89 1020.4
20170925135957 62 217 2.0 5.0 0.00 0.00 0.00 89 1020.4
20170925135452 62 209 2.0 4.0 0.00 0.00 0.00 89 1020.4
20170925134952 62 197 2.0 4.0 0.00 0.00 0.00 89 1020.4
20170925134456 62 182 3.0 4.0 0.00 0.00 0.00 89 1020.3
20170925133952 62 185 3.0 6.0 0.00 0.00 0.00 89 1020.3
20170925133453 62 177 3.0 6.0 0.00 0.00 0.00 89 1020.3
20170925132955 62 151 2.0 4.0 0.00 0.00 0.00 88 1020.4
20170925132453 62 132 2.0 3.0 0.00 0.00 0.00 88 1020.4
20170925131952 62 116 2.0 5.0 0.00 0.00 0.00 88 1020.4
20170925131455 62 110 2.0 5.0 0.00 0.00 0.00 88 1020.4
20170925130952 62 104 2.0 4.0 0.00 0.00 0.00 87 1020.4
20170925130452 62 95 2.0 5.0 0.00 0.00 0.00 87 1020.4
20170925125956 62 96 1.0 5.0 0.00 0.00 0.00 87 1020.4
20170925125452 62 93 2.0 5.0 0.00 0.00 0.00 86 1020.4
20170925124953 63 85 2.0 5.0 0.00 0.00 0.00 86 1020.3
20170925124455 63 77 1.0 5.0 0.00 0.00 0.00 85 1020.2
20170925123952 63 0 0.0 2.0 0.00 0.00 0.00 85 1020.1
20170925123453 63 284 1.0 2.0 0.00 0.00 0.00 84 1020.2
20170925122955 63 284 1.0 2.0 0.00 0.00 0.00 84 1020.2
20170925122452 64 287 1.0 3.0 0.00 0.00 0.00 84 1020.2
20170925121952 64 306 2.0 3.0 0.00 0.00 0.00 84 1020.3
20170925121455 64 344 1.0 3.0 0.00 0.00 0.00 84 1020.3
20170925120953 64 108 1.0 3.0 0.00 0.00 0.00 83 1020.2
20170925120452 64 122 1.0 3.0 0.00 0.00 0.00 82 1020.2
20170925115955 64 130 1.0 3.0 0.00 0.00 0.00 82 1020.2
20170925115452 64 133 1.0 3.0 0.00 0.00 0.00 82 1020.1
20170925114952 64 321 1.0 3.0 0.00 0.00 0.00 84 1020.1
20170925114456 64 334 1.0 3.0 0.00 0.00 0.00 84 1020.1
20170925113952 64 351 1.0 3.0 0.00 0.00 0.00 84 1020.0
20170925113452 64 335 1.0 3.0 0.00 0.00 0.00 85 1020.1
20170925112955 64 311 1.0 3.0 0.00 0.00 0.00 86 1020.1
20170925112452 63 326 1.0 3.0 0.00 0.00 0.00 86 1020.0
20170925111952 63 1 1.0 2.0 0.00 0.00 0.00 85 1020.1
20170925111456 63 1 1.0 3.0 0.00 0.00 0.00 85 1020.1
20170925110952 63 359 1.0 3.0 0.00 0.00 0.00 86 1020.1
20170925110452 63 312 1.0 4.0 0.00 0.00 0.00 87 1020.1
20170925105955 63 297 1.0 4.0 0.00 0.00 0.00 87 1020.1
20170925105452 63 291 1.0 3.0 0.00 0.00 0.00 86 1020.0
20170925104952 62 286 2.0 3.0 0.00 0.00 0.00 87 1020.1
20170925104455 62 290 2.0 5.0 0.00 0.00 0.00 87 1020.1
20170925103952 62 287 2.0 5.0 0.00 0.00 0.00 87 1020.0
20170925103452 62 300 2.0 5.0 0.00 0.00 0.00 87 1020.0
20170925102955 62 307 2.0 4.0 0.00 0.00 0.00 87 1020.0
20170925102452 62 299 2.0 4.0 0.00 0.00 0.00 87 1020.0
20170925101952 62 308 2.0 4.0 0.00 0.00 0.00 88 1020.1
20170925101455 61 312 2.0 4.0 0.00 0.00 0.00 88 1020.1
20170925100951 61 299 2.0 4.0 0.00 0.00 0.00 89 1020.1
20170925100452 61 288 2.0 4.0 0.00 0.00 0.00 89 1020.0
20170925095956 61 281 2.0 4.0 0.00 0.00 0.00 89 1020.0
20170925095452 60 283 2.0 4.0 0.00 0.00 0.00 90 1020.1
20170925094952 60 289 1.0 3.0 0.00 0.00 0.00 90 1020.0
20170925094455 60 289 2.0 3.0 0.00 0.00 0.00 89 1020.0
20170925093951 60 304 1.0 3.0 0.00 0.00 0.00 89 1020.0
20170925093452 60 354 1.0 3.0 0.00 0.00 0.00 90 1020.0
20170925092451 60 53 1.0 2.0 0.00 0.00 0.00 90 1020.0
20170925091952 60 62 1.0 2.0 0.00 0.00 0.00 90 1019.9
20170925091455 60 0 0.0 2.0 0.00 0.00 0.00 90 1019.9
20170925090952 60 0 0.0 1.0 0.00 0.00 0.00 91 1019.8
20170925090452 60 0 0.0 1.0 0.00 0.00 0.00 90 1019.7
20170925085955 60 0 0.0 2.0 0.00 0.00 0.00 91 1019.7
20170925085452 60 78 1.0 2.0 0.00 0.00 0.00 91 1019.8
20170925084952 60 61 1.0 3.0 0.00 0.00 0.00 91 1019.7
20170925084455 59 59 1.0 3.0 0.00 0.00 0.00 91 1019.6
20170925083951 59 85 1.0 4.0 0.00 0.00 0.00 91 1019.7
20170925083452 59 88 2.0 5.0 0.00 0.00 0.00 91 1019.6
20170925082956 59 89 2.0 5.0 0.00 0.00 0.00 91 1019.5
20170925082452 59 87 2.0 4.0 0.00 0.00 0.00 91 1019.5
20170925081951 59 77 1.0 4.0 0.00 0.00 0.00 92 1019.5
20170925081455 58 59 1.0 3.0 0.00 0.00 0.00 92 1019.6
20170925080952 58 58 2.0 3.0 0.00 0.00 0.00 92 1019.5
20170925080451 58 67 2.0 4.0 0.00 0.00 0.00 92 1019.4
20170925075955 58 63 3.0 5.0 0.00 0.00 0.00 92 1019.4
20170925075451 58 59 3.0 5.0 0.00 0.00 0.00 92 1019.4
20170925074952 58 64 3.0 5.0 0.00 0.00 0.00 92 1019.3
20170925074454 58 74 2.0 4.0 0.00 0.00 0.00 92 1019.3
20170925073952 58 90 1.0 4.0 0.00 0.00 0.00 92 1019.3
20170925073452 58 121 1.0 2.0 0.00 0.00 0.00 92 1019.3
20170925072954 58 125 1.0 2.0 0.00 0.00 0.00 92 1019.3
20170925072452 58 0 0.0 2.0 0.00 0.00 0.00 92 1019.3
20170925071952 58 132 1.0 2.0 0.00 0.00 0.00 92 1019.3
20170925071454 58 132 1.0 2.0 0.00 0.00 0.00 92 1019.3
20170925070952 58 132 1.0 2.0 0.00 0.00 0.00 92 1019.1
20170925070451 58 132 1.0 2.0 0.00 0.00 0.00 92 1019.0
20170925065955 58 132 1.0 2.0 0.00 0.00 0.00 92 1019.1
20170925065451 58 132 1.0 3.0 0.00 0.00 0.00 92 1019.1
20170925064952 58 138 1.0 5.0 0.00 0.00 0.00 92 1019.0
20170925064455 58 149 2.0 5.0 0.00 0.00 0.00 92 1018.9
20170925063951 58 158 1.0 3.0 0.00 0.00 0.00 92 1018.9
20170925063452 58 156 1.0 3.0 0.00 0.00 0.00 92 1018.8
20170925062954 58 141 2.0 3.0 0.00 0.00 0.00 92 1018.8
20170925062451 58 115 1.0 3.0 0.00 0.00 0.00 92 1018.7
20170925061952 58 89 1.0 2.0 0.00 0.00 0.00 91 1018.6
20170925061455 58 95 1.0 4.0 0.00 0.00 0.00 91 1018.5
20170925060952 58 103 1.0 4.0 0.00 0.00 0.00 91 1018.4
20170925060452 58 134 1.0 2.0 0.00 0.00 0.00 91 1018.3
20170925055955 58 123 1.0 2.0 0.00 0.00 0.00 91 1018.3
20170925055451 58 92 1.0 3.0 0.00 0.00 0.00 91 1018.2
20170925054951 58 77 1.0 4.0 0.00 0.00 0.00 91 1018.1
20170925054454 58 71 3.0 7.0 0.00 0.00 0.00 92 1018.0
20170925053952 57 73 3.0 7.0 0.00 0.00 0.00 91 1017.9
20170925053452 57 74 2.0 5.0 0.00 0.00 0.00 92 1018.0
20170925052954 57 71 2.0 3.0 0.00 0.00 0.00 92 1018.1
20170925052452 57 71 1.0 3.0 0.00 0.00 0.00 92 1018.2
20170925051951 57 0 0.0 2.0 0.00 0.00 0.00 91 1018.2
20170925051455 57 0 0.0 2.0 0.00 0.00 0.00 91 1018.2
20170925050951 57 74 1.0 2.0 0.00 0.00 0.00 91 1018.0
20170925050451 57 0 0.0 2.0 0.00 0.00 0.00 91 1018.0
20170925045955 57 0 0.0 1.0 0.00 0.00 0.00 91 1018.1
20170925045451 58 0 0.0 1.0 0.00 0.00 0.00 91 1018.1
20170925044952 58 0 0.0 1.0 0.00 0.00 0.00 91 1018.0
20170925044454 58 0 0.0 0.0 0.00 0.00 0.00 91 1017.9
20170925043951 58 0 0.0 0.0 0.00 0.00 0.00 91 1017.9
20170925043451 58 0 0.0 0.0 0.00 0.00 0.00 91 1017.9
20170925042955 58 0 0.0 0.0 0.00 0.00 0.00 91 1017.8
20170925042451 58 0 0.0 0.0 0.00 0.00 0.00 91 1017.8
20170925041951 58 0 0.0 0.0 0.00 0.00 0.00 91 1017.8
20170925041454 58 0 0.0 0.0 0.00 0.00 0.00 91 1017.7
20170925040952 58 0 0.0 1.0 0.00 0.00 0.00 91 1017.6
20170925040451 58 74 1.0 2.0 0.00 0.00 0.00 91 1017.6
20170925035955 58 74 1.0 2.0 0.00 0.00 0.00 91 1017.6
20170925035451 58 0 0.0 1.0 0.00 0.00 0.00 91 1017.6
20170925034951 58 74 1.0 2.0 0.00 0.00 0.00 91 1017.6
20170925034454 58 74 1.0 2.0 0.00 0.00 0.00 91 1017.6
20170925033951 58 0 0.0 2.0 0.00 0.00 0.00 91 1017.8
20170925033452 58 74 1.0 2.0 0.00 0.00 0.00 91 1017.7
20170925032954 58 74 1.0 2.0 0.00 0.00 0.00 91 1017.6
20170925032452 58 0 0.0 2.0 0.00 0.00 0.00 91 1017.7
20170925031951 58 0 0.0 1.0 0.00 0.00 0.00 91 1017.6
20170925031454 58 0 0.0 1.0 0.00 0.00 0.00 91 1017.6
20170925030951 58 0 0.0 1.0 0.00 0.00 0.00 91 1017.6
20170925030451 58 0 0.0 1.0 0.00 0.00 0.00 91 1017.6
20170925025955 58 0 0.0 1.0 0.00 0.00 0.00 90 1017.6
20170925025451 58 0 0.0 2.0 0.00 0.00 0.00 90 1017.6
20170925024951 58 79 1.0 2.0 0.00 0.00 0.00 90 1017.5
20170925024454 58 0 0.0 2.0 0.00 0.00 0.00 90 1017.5
20170925023952 58 0 0.0 1.0 0.00 0.00 0.00 90 1017.5
20170925023451 58 0 0.0 0.0 0.00 0.00 0.00 90 1017.5
20170925022954 58 0 0.0 0.0 0.00 0.00 0.00 90 1017.4
20170925022451 58 0 0.0 1.0 0.00 0.00 0.00 90 1017.5
20170925021951 58 0 0.0 1.0 0.00 0.00 0.00 90 1017.5
20170925021454 58 0 0.0 1.0 0.00 0.00 0.00 90 1017.5
20170925020951 58 0 0.0 2.0 0.00 0.00 0.00 90 1017.6
20170925020451 58 0 0.0 2.0 0.00 0.00 0.00 90 1017.7
20170925015954 59 85 1.0 2.0 0.00 0.00 0.00 90 1017.8